Location: Unspecified
(0.0000°N, 0.0000°E)
Time: 12:07:38
(UTC+00:00)

Transit 4A - Pass Details

Date: 21 December 2018
Orbit: 862 x 982 km, 66.8° (Epoch: 15 July)

Event Time Altitude Azimuth Distance (km) Brightness Sun altitude
Rises 23:27:09 0° 179° (S) 3,506 - -65.4°
Reaches altitude 10° 23:30:03 10° 167° (SSE) 2,546 - -65.6°
Maximum altitude 23:34:56 27° 110° (ESE) 1,605 - -65.9°
Drops below altitude 10° 23:39:43 10° 54° (NE) 2,498 - -66.1°
Sets 23:42:31 0° 42° (NE) 3,427 - -66.2°
